Location: W�rzburg
(49.7529°N, 9.8822°E)
Time: 15:59:18
(UTC+02:00)

Envisat - Visible Passes

Search period start: 24 May 2018 00:00
Search period end: 03 June 2018 00:00
Orbit: 764 x 766 km, 98.2° (Epoch: 24 May)

Date Brightness Start Highest point End Pass type
(mag) Time Alt. Az. Time Alt. Az. Time Alt. Az.
25 May 5.5 21:47:55 10° SW 21:51:40 21° W 21:55:26 10° NW visible
27 May 5.8 22:15:32 10° WSW 22:17:36 12° W 22:19:41 10° WNW visible
30 May 5.6 22:03:19 10° WSW 22:06:17 15° W 22:09:16 10° NW visible
